Sioux City, IA

10:17 AM CST on December 15, 2017 (GMT -0600)
Sioux Gateway

Weather History for KSUX - November, 2011

Change the Weather History Date:

Saturday, November 5, 2011

  Actual Average Record
Temperature  
Mean Temperature 51 °F 42 °F  
Max Temperature 62 °F 53 °F 78 °F (1945)
Min Temperature 40 °F 31 °F 6 °F (1951)
Degree Days  
Heating Degree Days 14 23  
Month to date heating degree days 109 111  
Since 1 July heating degree days 663 711  
Cooling Degree Days 0 0  
Month to date cooling degree days 0 0  
Year to date cooling degree days 1093 869  
Moisture  
Dew Point 38 °F    
Average Humidity 68    
Maximum Humidity 93    
Minimum Humidity 37    
Precipitation  
Precipitation 0.00 in 0.04 in 0.92 in (2013)
Month to date precipitation 0.03 0.23  
Year to date precipitation 23.33 25.86  
Snow  
Snow 0.00 in 0.10 in 2.20 in (1938)
Month to date snowfall 0.0 0.4  
Since 1 July snowfall 0.0 1.4  
Since 1 September snowfall 0.0 1.4  
Snow Depth 0.00 in    
Sea Level Pressure  
Sea Level Pressure 29.76 in    
Wind  
Wind Speed 18 mph (SSE)    
Max Wind Speed 30 mph    
Max Gust Speed 39 mph    
Visibility 9 miles    
Events      
T = Trace of Precipitation, MM = Missing Value Source: NWS Daily Summary

Daily Weather History Graph

Daily Weather History Graph

Search for Another Location

Airport or City:

Trip Planner

Search our weather history database for the weather conditions in past years. The results will help you decide how hot, cold, wet, or windy it might be!

Date:

Astronomy

Nov. 05, 2011 Rise Set
Actual Time 8:03 AM CDT 6:14 PM CDT
Civil Twilight 7:34 AM CDT 6:43 PM CDT
Nautical Twilight 7:00 AM CDT 7:16 PM CDT
Astronomical Twilight 6:27 AM CDT 7:49 PM CDT
Moon 3:37 PM CDT (11/5) 3:09 AM CDT (11/5)
Length of Visible Light 11h 09m
Length of Day
10h 10m
Waxing Gibbous, 78% of the Moon is Illuminated
Nov 5
Waxing Gibbous
Nov 10
Full
Nov 18
Last Quarter
Nov 25
New
Dec 2
First Quarter

Hourly Weather History & Observations

Time (CDT) Temp. Windchill Dew Point Humidity Pressure Visibility Wind Dir Wind Speed Gust Speed Precip Events Conditions
12:52 AM 42.1 °F 35.2 °F 36.0 °F 79% 29.96 in 10.0 mi SE 12.7 mph - N/A   Clear
1:52 AM 41.0 °F 34.3 °F 37.0 °F 86% 29.96 in 10.0 mi SE 11.5 mph - N/A   Clear
2:52 AM 41.0 °F 33.1 °F 37.0 °F 86% 29.93 in 8.0 mi SE 15.0 mph - N/A   Clear
3:52 AM 42.1 °F 35.7 °F 37.9 °F 85% 29.91 in 7.0 mi SE 11.5 mph - N/A   Clear
4:52 AM 42.1 °F 35.2 °F 37.9 °F 85% 29.89 in 7.0 mi SE 12.7 mph - N/A   Clear
5:52 AM 41.0 °F 34.3 °F 37.9 °F 89% 29.88 in 6.0 mi SE 11.5 mph - N/A   Clear
6:52 AM 39.2 °F 32.0 °F 37.4 °F 93% 29.84 in 6.0 mi SE 11.5 mph - N/A   Clear
7:52 AM 41.0 °F 34.3 °F 37.9 °F 89% 29.84 in 6.0 mi SSE 11.5 mph - N/A   Clear
8:52 AM 43.0 °F 35.1 °F 37.9 °F 82% 29.84 in 7.0 mi SSE 17.3 mph 21.9 mph N/A   Clear
9:52 AM 46.0 °F 37.6 °F 37.9 °F 73% 29.83 in 10.0 mi South 24.2 mph 34.5 mph N/A   Clear
10:52 AM 50.0 °F - 37.9 °F 63% 29.80 in 10.0 mi SSE 25.3 mph 33.4 mph N/A   Clear
11:52 AM 55.4 °F - 35.6 °F 47% 29.77 in 10.0 mi South 23.0 mph 32.2 mph N/A   Clear
12:52 PM 59.0 °F - 35.1 °F 41% 29.75 in 10.0 mi South 23.0 mph 34.5 mph N/A   Clear
1:52 PM 62.6 °F - 35.6 °F 37% 29.71 in 10.0 mi South 24.2 mph 33.4 mph N/A   Clear
2:52 PM 60.8 °F - 37.4 °F 42% 29.67 in 10.0 mi SSE 27.6 mph 34.5 mph N/A   Clear
3:52 PM 59.0 °F - 39.9 °F 49% 29.64 in 10.0 mi SSE 20.7 mph 33.4 mph N/A   Clear
4:52 PM 57.0 °F - 39.9 °F 53% 29.62 in 10.0 mi SSE 24.2 mph 34.5 mph N/A   Clear
5:52 PM 55.9 °F - 39.0 °F 53% 29.62 in 10.0 mi SSE 18.4 mph 39.1 mph N/A   Clear
6:52 PM 54.0 °F - 39.9 °F 59% 29.60 in 10.0 mi SSE 21.9 mph 34.5 mph N/A   Clear
7:52 PM 53.1 °F - 39.9 °F 61% 29.62 in 10.0 mi SSE 20.7 mph 31.1 mph N/A   Clear
8:52 PM 52.0 °F - 41.0 °F 66% 29.63 in 10.0 mi SSE 19.6 mph 29.9 mph N/A   Clear
9:52 PM 51.1 °F - 41.0 °F 68% 29.64 in 10.0 mi SSE 16.1 mph 25.3 mph N/A   Clear
10:52 PM 50.0 °F - 41.0 °F 71% 29.61 in 10.0 mi SSE 15.0 mph 23.0 mph N/A   Clear
11:52 PM 50.0 °F - 41.0 °F 71% 29.59 in 10.0 mi SSE 16.1 mph 23.0 mph N/A   Clear